Content
SEND FEEDBACK

Daily
Averages
Monthly
Summary
United States of America

ROCK HILL, NEW YORK


Home > North America > United States > New York
Elevation: 1260 feet     Latitude: 41 35N     Longitude: 074 37W

WEATHER
 
SELECT A DAY
Number of Records: 449,140;   Date Range: 1/1/95 - 9/30/14
 
SHARE

PRINT THIS DATA

[ ← Previous Day ]
WEATHER ALMANAC - FEBRUARY 3, 2014
[ Next Day → ]
[ °C ]   °F
Weather ElementAverageHighLow
Temperature24.9 °F30.2 °F (12:35 am)15.8 °F (10:55 pm)
Dewpoint17.4 °F21.2 °F (12:35 am)6.8 °F (11:35 pm)
Humidity73.3 %80 % (7:55 am)64 % (1:15 am)
Barometer30.14 in30.26 in (11:55 pm)30.08 in (1:15 am)
Wind Speed5.9 mph11.5 mph (1:35 am)
Wind Gust16.1 mph (1:55 am)
Weather ElementAverage
Visibility6.3 mi
Wind DirectionWSW (256.1 °)

Weather ElementTotal
Precipitation---
Heating Degree Days42 (Base 65)
Averaged from 71 records on February 3, 2014
WEATHER CONDITIONS BREAKOUT
WIND DIRECTION BREAKOUT
WEATHER BY HOUR - FEBRUARY 3, 2014
[ °C ]   °F
Local TimeTemperatureDewpointHumidityBarometerVisibilityWind DirectionWind SpeedGust SpeedPrecipitationEventsConditions
12:35 AM30.2 °F21.2 °F69 %30.09 in10.0 miNW (320°)6.9 mphOvercast
12:55 AM30.2 °F21.2 °F69 %30.09 in10.0 miNNW (330°)8.1 mphOvercast
1:15 AM30.2 °F19.4 °F64 %30.08 in10.0 miNNW (340°)10.4 mphMostly Cloudy
1:35 AM28.4 °F19.4 °F69 %30.09 in10.0 miNorth (350°)11.5 mphOvercast
1:55 AM28.4 °F19.4 °F69 %30.10 in10.0 miNNW (340°)11.5 mph16.1 mphOvercast
2:15 AM28.4 °F19.4 °F69 %30.11 in10.0 miNorth (350°)11.5 mphOvercast
2:35 AM28.4 °F19.4 °F69 %30.11 in10.0 miNNW (340°)9.2 mphOvercast
2:55 AM28.4 °F19.4 °F69 %30.10 in10.0 miNW (320°)9.2 mphOvercast
3:15 AM28.4 °F19.4 °F69 %30.10 in10.0 miNNW (330°)5.8 mphMostly Cloudy
3:35 AM28.4 °F19.4 °F69 %30.10 in10.0 miNNW (330°)6.9 mphOvercast
3:55 AM28.4 °F19.4 °F69 %30.10 in10.0 miNorth (350°)8.1 mphOvercast
4:15 AM28.4 °F19.4 °F69 %30.09 in10.0 miNNW (330°)8.1 mphMostly Cloudy
4:35 AM28.4 °F19.4 °F69 %30.10 in10.0 miNW (320°)6.9 mphMostly Cloudy
4:55 AM28.4 °F19.4 °F69 %30.11 in10.0 miNW (320°)6.9 mphOvercast
5:15 AM28.4 °F19.4 °F69 %30.10 in10.0 miNNW (340°)6.9 mphOvercast
5:35 AM28.4 °F19.4 °F69 %30.10 in10.0 miNNW (330°)6.9 mphOvercast
5:55 AM28.4 °F19.4 °F69 %30.10 in10.0 miNNW (340°)6.9 mphOvercast
6:15 AM28.4 °F17.6 °F64 %30.09 in10.0 miNNW (330°)4.6 mphMostly Cloudy
6:35 AM28.4 °F19.4 °F69 %30.09 in7.0 miCalmOvercast
6:55 AM26.6 °F19.4 °F74 %30.08 in2.0 miNorth (350°)3.5 mphOvercast
7:15 AM26.6 °F19.4 °F74 %30.08 in2.0 miCalmOvercast
7:35 AM26.6 °F19.4 °F74 %30.09 in1.8 miCalmOvercast
7:55 AM26.6 °F21.2 °F80 %30.10 in0.8 miCalmOvercast
8:15 AM26.6 °F21.2 °F80 %30.10 in0.8 miCalmOvercast
8:35 AM26.6 °F21.2 °F80 %30.12 in0.8 miCalmOvercast
8:55 AM26.6 °F21.2 °F80 %30.13 in0.8 miEast (90°)6.9 mphOvercast
9:15 AM26.6 °F21.2 °F80 %30.14 in0.8 miCalmOvercast
9:35 AM26.6 °F21.2 °F80 %30.14 in1.0 miESE (120°)5.8 mphOvercast
9:55 AM26.6 °F21.2 °F80 %30.14 in1.2 miEast (100°)6.9 mphOvercast
10:15 AM26.6 °F21.2 °F80 %30.14 in0.8 miEast (90°)4.6 mphOvercast
10:35 AM26.6 °F21.2 °F80 %30.14 in0.8 miEast (100°)4.6 mphOvercast
10:55 AM26.6 °F21.2 °F80 %30.13 in1.0 miEast (90°)4.6 mphOvercast
11:15 AM26.6 °F19.4 °F74 %30.13 in1.0 miENE (60°)5.8 mphOvercast
11:35 AM26.6 °F19.4 °F74 %30.12 in1.0 miNE (40°)4.6 mphOvercast
11:55 AM26.6 °F21.2 °F80 %30.12 in0.8 miCalmOvercast
12:15 PM26.6 °F21.2 °F80 %30.10 in1.0 miCalmOvercast
12:35 PM26.6 °F21.2 °F80 %30.10 in0.8 miNNW (340°)4.6 mphOvercast
12:55 PM26.6 °F21.2 °F80 %30.10 in0.5 miNNW (340°)8.1 mphOvercast
1:15 PM26.6 °F21.2 °F80 %30.09 in0.8 miNNW (340°)9.2 mphOvercast
1:35 PM26.6 °F21.2 °F80 %30.09 in0.5 miNNW (330°)9.2 mphOvercast
1:55 PM26.6 °F21.2 °F80 %30.10 in0.8 miNNW (330°)6.9 mphOvercast
2:15 PM26.6 °F19.4 °F74 %30.10 in0.8 miNNW (330°)6.9 mphOvercast
2:35 PM26.6 °F19.4 °F74 %30.11 in1.0 miNNW (330°)6.9 mphOvercast
2:55 PM24.8 °F19.4 °F80 %30.11 in2.5 miNNW (340°)8.1 mphOvercast
3:15 PM24.8 °F19.4 °F80 %30.12 in2.5 miNNW (340°)9.2 mphOvercast
3:35 PM24.8 °F19.4 °F80 %30.13 in1.5 miNW (320°)8.1 mphOvercast
3:55 PM24.8 °F19.4 °F80 %30.13 in1.2 miNNW (340°)8.1 mphOvercast
4:15 PM24.8 °F19.4 °F80 %30.14 in1.0 miNNW (330°)6.9 mphOvercast
4:35 PM24.8 °F19.4 °F80 %30.14 in8.0 miNW (310°)4.6 mphMostly Cloudy
4:55 PM24.8 °F17.6 °F74 %30.14 in10.0 miWNW (300°)4.6 mphClear
5:15 PM24.8 °F17.6 °F74 %30.14 in10.0 miNW (320°)4.6 mphMostly Cloudy
5:35 PM24.8 °F15.8 °F69 %30.15 in10.0 miNW (310°)4.6 mphScattered Clouds
5:55 PM24.8 °F15.8 °F69 %30.16 in10.0 miNW (310°)3.5 mphClear
6:15 PM23.0 °F15.8 °F74 %30.17 in10.0 miWNW (300°)5.8 mphClear
6:35 PM21.2 °F14.0 °F74 %30.18 in10.0 miWNW (290°)5.8 mphClear
6:55 PM21.2 °F12.2 °F68 %30.20 in10.0 miWNW (290°)4.6 mphClear
7:15 PM21.2 °F12.2 °F68 %30.21 in10.0 miWNW (300°)6.9 mphClear
7:35 PM19.4 °F12.2 °F74 %30.21 in10.0 miNW (310°)8.1 mphClear
7:55 PM19.4 °F10.4 °F68 %30.22 in10.0 miWNW (300°)5.8 mphClear
8:15 PM19.4 °F10.4 °F68 %30.21 in10.0 miNW (320°)6.9 mphClear
8:35 PM19.4 °F10.4 °F68 %30.21 in10.0 miNW (320°)8.1 mphClear
8:55 PM19.4 °F10.4 °F68 %30.22 in10.0 miNW (320°)4.6 mphClear
9:15 PM17.6 °F10.4 °F73 %30.23 in10.0 miWNW (290°)4.6 mphClear
9:35 PM17.6 °F8.6 °F68 %30.24 in10.0 miNW (310°)4.6 mphClear
9:55 PM17.6 °F8.6 °F68 %30.25 in10.0 miNW (320°)8.1 mphClear
10:15 PM17.6 °F8.6 °F68 %30.25 in10.0 miNW (320°)5.8 mphClear
10:35 PM17.6 °F8.6 °F68 %30.25 in10.0 miNW (320°)5.8 mphClear
10:55 PM15.8 °F8.6 °F73 %30.25 in10.0 miNW (320°)5.8 mphClear
11:15 PM15.8 °F8.6 °F73 %30.25 in10.0 miNW (310°)6.9 mphClear
11:35 PM15.8 °F6.8 °F68 %30.25 in10.0 miNW (310°)6.9 mphClear
11:55 PM15.8 °F8.6 °F73 %30.26 in10.0 miNW (320°)3.5 mphClear
Hourly data recorded from KMSV, located miles away from Rock Hill, New York







STORIES FROM OUR PARTNERS